Leadville, CO

4:21 PM MDT on September 25, 2016 (GMT -0600)
Lake County

Weather History for KLXV - July, 2014

Change the Weather History Date:

Thursday, July 10, 2014

  Actual Average Record
Temperature  
Mean Temperature 57 °F -  
Max Temperature 74 °F 70 °F 78 °F (2002)
Min Temperature 40 °F 38 °F 30 °F (1978)
Degree Days  
Heating Degree Days 8 11  
Month to date heating degree days 85 116  
Since 1 June heating degree days 539 596  
Since 1 July heating degree days 85 116  
Cooling Degree Days 0 0  
Month to date cooling degree days 0 0  
Year to date cooling degree days 0 0  
Since 1 June cooling degree days 0 0  
Growing Degree Days 6 (Base 50)    
Moisture  
Dew Point 39 °F    
Average Humidity 52    
Maximum Humidity 79    
Minimum Humidity 25    
Precipitation  
Precipitation 0.02 in 0.05 in 0.37 in (1984)
Month to date precipitation 0.03 0.46  
Year to date precipitation 8.65 5.53  
Sea Level Pressure  
Sea Level Pressure 30.07 in    
Wind  
Wind Speed 7 mph (North)    
Max Wind Speed 21 mph    
Max Gust Speed 26 mph    
Visibility 10 miles    
Events Rain , Thunderstorm    
T = Trace of Precipitation, MM = Missing Value Source: NWS Daily Summary

Daily Weather History Graph

Daily Weather History Graph

Search for Another Location

Airport or City:

Trip Planner

Search our weather history database for the weather conditions in past years. The results will help you decide how hot, cold, wet, or windy it might be!

Date:

Astronomy

Jul. 10, 2014 Rise Set
Actual Time 5:47 AM MDT 8:33 PM MDT
Civil Twilight 5:16 AM MDT 9:04 PM MDT
Nautical Twilight 4:36 AM MDT 9:44 PM MDT
Astronomical Twilight 3:51 AM MDT 10:29 PM MDT
Moon 6:49 PM MDT (7/10) 4:01 AM MDT (7/10)
Length of Visible Light 15h 48m
Length of Day
14h 45m
Waxing Gibbous, 96% of the Moon is Illuminated
Jul 10
Waxing Gibbous
Jul 12
Full
Jul 18
Last Quarter
Jul 26
New
Aug 3
First Quarter

Hourly Weather History & Observations

Time (MDT) Temp. Windchill Dew Point Humidity Pressure Visibility Wind Dir Wind Speed Gust Speed Precip Events Conditions
12:53 AM 46.0 °F 43.1 °F 35.1 °F 66% 29.91 in 10.0 mi East 5.8 mph - N/A   Clear
1:53 AM 46.4 °F 44.3 °F 35.6 °F 66% 30.44 in 10.0 mi North 4.6 mph - N/A   Partly Cloudy
2:53 AM 48.0 °F - 35.1 °F 61% 29.91 in 10.0 mi NNE 4.6 mph - N/A   Clear
3:53 AM 48.2 °F - 35.6 °F 62% 30.41 in 10.0 mi North 3.5 mph - N/A   Clear
4:53 AM 41.0 °F 37.1 °F 33.1 °F 73% 29.92 in 10.0 mi NE 5.8 mph - N/A   Clear
5:53 AM 39.9 °F 34.5 °F 33.1 °F 77% 29.94 in 10.0 mi NE 8.1 mph - N/A   Clear
6:53 AM 44.6 °F 43.1 °F 33.8 °F 66% 30.44 in 10.0 mi North 3.5 mph - N/A   Clear
7:53 AM 55.0 °F - 36.0 °F 49% 29.89 in 10.0 mi NNE 4.6 mph - N/A   Clear
8:53 AM 61.0 °F - 37.0 °F 41% 29.88 in 10.0 mi Calm Calm - N/A   Clear
9:53 AM 64.0 °F - 37.0 °F 37% 29.90 in 10.0 mi WNW 5.8 mph - N/A   Clear
10:37 AM 66.9 °F - 37.0 °F 33% 30.44 in 7.0 mi NNW 9.2 mph - N/A   Partly Cloudy
10:53 AM 66.9 °F - 36.0 °F 32% 29.88 in 3.0 mi West 8.1 mph - N/A   Haze
11:53 AM 71.1 °F - 34.0 °F 26% 29.87 in 10.0 mi WNW 10.4 mph - N/A   Clear
12:53 PM 73.0 °F - 35.1 °F 25% 29.84 in 10.0 mi WNW 11.5 mph 17.3 mph N/A   Mostly Cloudy
1:53 PM 69.1 °F - 34.0 °F 27% 29.85 in 10.0 mi WSW 9.2 mph - N/A Thunderstorm Overcast
2:10 PM 68.0 °F - 36.0 °F 31% 30.39 in 10.0 mi WSW 12.7 mph 20.7 mph N/A   Overcast
2:29 PM 64.0 °F - 37.9 °F 38% 30.40 in 10.0 mi SSW 10.4 mph - N/A Thunderstorm Overcast
2:44 PM 62.1 °F - 41.0 °F 46% 30.40 in 10.0 mi Variable 5.8 mph - 0.00 in Rain Light Rain
2:53 PM 62.1 °F - 41.0 °F 46% 29.90 in 10.0 mi NE 11.5 mph - 0.00 in Thunderstorm Overcast
3:28 PM 61.0 °F - 42.1 °F 50% 30.39 in 10.0 mi ENE 8.1 mph - 0.00 in   Overcast
3:53 PM 66.0 °F - 43.0 °F 43% 29.87 in 10.0 mi North 13.8 mph 19.6 mph 0.00 in   Scattered Clouds
4:53 PM 66.0 °F - 39.0 °F 37% 29.90 in 10.0 mi North 5.8 mph - N/A   Overcast
5:53 PM 66.9 °F - 39.0 °F 36% 29.88 in 10.0 mi NNE 11.5 mph - 0.00 in   Scattered Clouds
6:37 PM 63.0 °F - 41.0 °F 45% 30.39 in 10.0 mi North - - N/A Thunderstorm Overcast
6:53 PM 57.9 °F - 46.0 °F 65% 29.95 in 10.0 mi South 17.3 mph - 0.00 in Rain , Thunderstorm Light Rain
7:33 PM 55.9 °F - 46.9 °F 72% 30.44 in 10.0 mi SSE 10.4 mph - 0.00 in Rain Light Rain
7:53 PM 55.0 °F - 48.0 °F 77% 29.96 in 10.0 mi WSW 4.6 mph - 0.00 in   Overcast
8:53 PM 51.1 °F - 48.9 °F 92% 29.91 in 10.0 mi Variable 3.5 mph - 0.02 in Rain Light Rain
9:53 PM 51.1 °F - 48.9 °F 92% 29.91 in 10.0 mi NE 5.8 mph - 0.00 in   Overcast
10:53 PM 51.1 °F - 48.0 °F 89% 29.92 in 10.0 mi WNW 3.5 mph - 0.00 in Rain Light Rain
11:53 PM 50.0 °F - 46.9 °F 89% 29.89 in 10.0 mi NE 4.6 mph - 0.00 in   Overcast